QPF
0.67 0.63 0.59 0.55 0.46 0.43 0.42 0.42 0.43 0.51 0.61 0.69 0.78 0.84 0.86 0.84 0.61 0.44 0.32 0.25 0.18 0.12 0.06 0.03 0.03 0.03 0.03 0.03 0.02 0.01 0.01 0.00 0.01 0.01 0.00 0.00 0.00 0.00 0.00 0.00 0.01 0.00 0.00 0.00 0.00 0.00 0.00 0.00 0.00 0.00 0.01 0.00 0.00 0.00 0.00 0.00 0.00 0.00 0.00 0.00 0.00 0.00 0.00 0.00 0.01 0.01 0.01 0.01 0.01
0.74 0.72 0.68 0.64 0.61 0.56 0.52 0.48 0.45 0.46 0.50 0.57 0.66 0.76 0.85 0.90 0.78 0.66 0.54 0.42 0.35 0.27 0.21 0.13 0.11 0.09 0.07 0.07 0.04 0.03 0.03 0.04 0.04 0.03 0.02 0.01 0.00 0.00 0.00 0.00 0.01 0.01 0.02 0.02 0.02 0.02 0.01 0.00 0.00 0.01 0.01 0.01 0.01 0.01 0.01 0.00 0.00 0.01 0.01 0.01 0.00 0.00 0.00 0.00 0.00 0.00 0.00 0.00 0.02
0.55 0.58 0.62 0.67 0.69 0.70 0.68 0.65 0.59 0.53 0.51 0.52 0.58 0.67 0.77 0.87 0.78 0.68 0.59 0.51 0.47 0.44 0.39 0.29 0.23 0.17 0.13 0.10 0.08 0.08 0.07 0.07 0.06 0.06 0.05 0.03 0.03 0.03 0.03 0.02 0.02 0.04 0.04 0.03 0.02 0.02 0.01 0.01 0.03 0.04 0.04 0.04 0.04 0.04 0.03 0.01 0.02 0.03 0.04 0.01 0.00 0.01 0.02 0.01 0.00 0.00 0.01 0.03 0.02
0.49 0.50 0.54 0.61 0.65 0.70 0.74 0.73 0.69 0.61 0.56 0.57 0.60 0.65 0.72 0.80 0.80 0.75 0.66 0.58 0.56 0.57 0.57 0.52 0.42 0.33 0.24 0.17 0.27 0.22 0.13 0.10 0.09 0.08 0.07 0.06 0.05 0.05 0.04 0.04 0.05 0.06 0.06 0.06 0.04 0.03 0.03 0.04 0.07 0.11 0.15 0.14 0.14 0.13 0.10 0.05 0.05 0.04 0.04 0.02 0.03 0.05 0.06 0.01 0.01 0.01 0.02 0.03 0.02
0.52 0.54 0.54 0.55 0.57 0.62 0.66 0.69 0.67 0.63 0.59 0.56 0.54 0.55 0.58 0.62 0.63 0.61 0.59 0.57 0.58 0.61 0.64 0.66 0.64 0.59 0.57 0.63 0.52 0.37 0.24 0.20 0.17 0.15 0.12 0.11 0.07 0.05 0.05 0.06 0.06 0.08 0.09 0.10 0.08 0.06 0.08 0.15 0.19 0.22 0.23 0.20 0.18 0.15 0.10 0.06 0.09 0.08 0.09 0.15 0.14 0.13 0.11 0.10 0.04 0.02 0.02 0.02 0.03
0.53 0.53 0.50 0.43 0.46 0.51 0.56 0.60 0.60 0.58 0.55 0.53 0.56 0.57 0.55 0.53 0.47 0.44 0.42 0.40 0.40 0.41 0.47 0.61 0.68 0.60 0.51 0.53 0.51 0.40 0.29 0.26 0.25 0.24 0.22 0.19 0.16 0.15 0.14 0.13 0.12 0.11 0.11 0.11 0.11 0.14 0.18 0.26 0.31 0.32 0.29 0.23 0.18 0.12 0.07 0.06 0.09 0.13 0.16 0.18 0.16 0.14 0.13 0.11 0.04 0.02 0.02 0.02 0.06
0.55 0.50 0.40 0.25 0.27 0.31 0.35 0.38 0.38 0.35 0.32 0.32 0.36 0.40 0.45 0.47 0.36 0.30 0.26 0.21 0.18 0.18 0.23 0.33 0.25 0.25 0.30 0.35 0.37 0.38 0.36 0.30 0.30 0.31 0.31 0.29 0.25 0.22 0.19 0.18 0.17 0.17 0.17 0.16 0.15 0.14 0.14 0.17 0.25 0.26 0.23 0.17 0.14 0.11 0.09 0.09 0.13 0.15 0.14 0.12 0.10 0.09 0.09 0.08 0.05 0.04 0.04 0.06 0.07
0.50 0.46 0.36 0.21 0.19 0.19 0.19 0.20 0.20 0.18 0.16 0.15 0.16 0.18 0.21 0.26 0.30 0.28 0.24 0.19 0.16 0.16 0.16 0.16 0.18 0.20 0.22 0.25 0.29 0.31 0.30 0.22 0.22 0.23 0.25 0.26 0.25 0.22 0.18 0.17 0.16 0.15 0.15 0.14 0.14 0.12 0.10 0.13 0.15 0.17 0.18 0.19 0.14 0.11 0.09 0.09 0.12 0.14 0.12 0.09 0.08 0.08 0.09 0.10 0.08 0.07 0.08 0.09 0.07
0.39 0.38 0.35 0.28 0.25 0.22 0.20 0.18 0.15 0.13 0.12 0.11 0.10 0.10 0.12 0.14 0.22 0.25 0.25 0.23 0.16 0.13 0.12 0.10 0.10 0.11 0.13 0.15 0.18 0.19 0.18 0.14 0.12 0.12 0.12 0.13 0.13 0.15 0.17 0.17 0.16 0.14 0.12 0.10 0.08 0.07 0.07 0.09 0.12 0.14 0.16 0.18 0.13 0.10 0.09 0.09 0.11 0.13 0.14 0.13 0.12 0.11 0.12 0.14 0.14 0.14 0.14 0.15 0.12
0.30 0.30 0.30 0.29 0.25 0.21 0.18 0.18 0.17 0.15 0.13 0.11 0.10 0.09 0.09 0.09 0.09 0.09 0.09 0.08 0.07 0.06 0.05 0.04 0.06 0.08 0.09 0.11 0.12 0.14 0.14 0.13 0.12 0.11 0.11 0.11 0.12 0.12 0.12 0.13 0.13 0.12 0.11 0.10 0.08 0.05 0.03 0.02 0.02 0.03 0.04 0.06 0.08 0.10 0.12 0.14 0.14 0.15 0.15 0.14 0.13 0.14 0.14 0.15 0.14 0.14 0.16 0.18 0.17
0.15 0.17 0.20 0.22 0.21 0.19 0.16 0.13 0.12 0.10 0.08 0.07 0.06 0.05 0.04 0.04 0.03 0.03 0.03 0.02 0.02 0.02 0.02 0.02 0.02 0.03 0.04 0.07 0.10 0.13 0.15 0.17 0.20 0.21 0.20 0.19 0.18 0.17 0.16 0.14 0.12 0.11 0.09 0.06 0.05 0.04 0.02 0.01 0.01 0.01 0.01 0.01 0.01 0.02 0.04 0.09 0.09 0.11 0.13 0.12 0.12 0.13 0.15 0.15 0.16 0.18 0.21 0.23 0.23
0.05 0.07 0.09 0.11 0.13 0.14 0.13 0.11 0.10 0.09 0.07 0.07 0.06 0.05 0.03 0.02 0.01 0.01 0.01 0.01 0.01 0.01 0.01 0.01 0.01 0.01 0.01 0.02 0.05 0.08 0.12 0.16 0.22 0.25 0.26 0.27 0.27 0.27 0.25 0.22 0.15 0.11 0.08 0.07 0.05 0.04 0.03 0.02 0.01 0.01 0.01 0.01 0.01 0.02 0.03 0.06 0.07 0.08 0.09 0.11 0.11 0.12 0.14 0.16 0.20 0.21 0.23 0.29 0.32
0.01 0.02 0.03 0.04 0.05 0.06 0.07 0.07 0.07 0.06 0.06 0.06 0.06 0.05 0.03 0.02 0.01 0.01 0.01 0.01 0.01 0.01 0.01 0.02 0.02 0.02 0.02 0.02 0.04 0.06 0.08 0.11 0.14 0.18 0.21 0.24 0.24 0.23 0.22 0.21 0.16 0.10 0.07 0.05 0.04 0.04 0.03 0.02 0.02 0.01 0.01 0.02 0.02 0.03 0.05 0.08 0.10 0.10 0.10 0.09 0.09 0.10 0.11 0.12 0.16 0.17 0.18 0.22 0.25
0.00 0.00 0.00 0.01 0.01 0.01 0.02 0.03 0.03 0.03 0.03 0.04 0.03 0.03 0.02 0.02 0.01 0.01 0.01 0.01 0.01 0.01 0.01 0.02 0.04 0.05 0.05 0.06 0.09 0.13 0.15 0.17 0.18 0.20 0.20 0.20 0.18 0.16 0.13 0.12 0.08 0.06 0.05 0.05 0.04 0.04 0.03 0.03 0.02 0.02 0.02 0.03 0.04 0.05 0.06 0.08 0.10 0.10 0.10 0.08 0.06 0.05 0.05 0.06 0.08 0.07 0.06 0.08 0.09
0.00 0.00 0.00 0.00 0.00 0.00 0.00 0.00 0.01 0.01 0.02 0.02 0.01 0.01 0.02 0.02 0.02 0.02 0.02 0.02 0.01 0.01 0.02 0.02 0.02 0.03 0.05 0.09 0.12 0.15 0.16 0.17 0.19 0.19 0.17 0.15 0.12 0.09 0.06 0.05 0.03 0.02 0.03 0.03 0.03 0.03 0.03 0.02 0.02 0.02 0.03 0.04 0.05 0.06 0.07 0.08 0.10 0.11 0.10 0.08 0.05 0.04 0.03 0.03 0.03 0.02 0.02 0.02 0.03
0.00 0.00 0.00 0.00 0.00 0.00 0.00 0.00 0.00 0.00 0.01 0.01 0.01 0.01 0.01 0.01 0.02 0.03 0.03 0.03 0.03 0.03 0.04 0.04 0.04 0.04 0.04 0.06 0.07 0.08 0.07 0.07 0.09 0.09 0.09 0.07 0.05 0.03 0.02 0.01 0.01 0.01 0.01 0.01 0.01 0.01 0.01 0.02 0.02 0.02 0.03 0.05 0.06 0.07 0.08 0.08 0.09 0.10 0.10 0.09 0.06 0.04 0.02 0.02 0.02 0.01 0.01 0.01 0.01
0.00 0.00 0.00 0.00 0.00 0.00 0.00 0.00 0.00 0.00 0.00 0.00 0.00 0.00 0.01 0.01 0.02 0.03 0.04 0.05 0.05 0.06 0.06 0.06 0.05 0.05 0.04 0.04 0.04 0.04 0.03 0.03 0.03 0.03 0.04 0.04 0.03 0.02 0.01 0.01 0.01 0.01 0.00 0.00 0.00 0.01 0.01 0.01 0.02 0.02 0.03 0.05 0.06 0.07 0.07 0.08 0.08 0.09 0.09 0.08 0.06 0.05 0.03 0.02 0.02 0.02 0.01 0.01 0.00
0.00 0.00 0.00 0.00 0.00 0.00 0.00 0.00 0.00 0.00 0.00 0.00 0.00 0.00 0.00 0.00 0.01 0.02 0.04 0.05 0.07 0.08 0.09 0.08 0.08 0.07 0.06 0.05 0.04 0.04 0.03 0.02 0.02 0.01 0.01 0.02 0.02 0.01 0.01 0.00 0.00 0.00 0.00 0.00 0.00 0.01 0.01 0.01 0.02 0.03 0.03 0.04 0.05 0.06 0.06 0.07 0.07 0.08 0.08 0.07 0.06 0.05 0.04 0.03 0.04 0.03 0.03 0.02 0.01
0.00 0.00 0.00 0.00 0.00 0.00 0.00 0.00 0.00 0.00 0.00 0.00 0.00 0.00 0.00 0.00 0.00 0.01 0.02 0.04 0.06 0.07 0.08 0.08 0.08 0.07 0.07 0.06 0.05 0.04 0.04 0.04 0.03 0.02 0.01 0.01 0.01 0.01 0.00 0.00 0.00 0.00 0.00 0.00 0.00 0.00 0.01 0.01 0.02 0.03 0.04 0.04 0.05 0.05 0.06 0.06 0.07 0.07 0.07 0.08 0.07 0.06 0.06 0.05 0.05 0.04 0.04 0.03 0.02
0.00 0.00 0.00 0.00 0.00 0.00 0.00 0.00 0.00 0.00 0.00 0.00 0.00 0.00 0.00 0.00 0.00 0.00 0.01 0.01 0.02 0.04 0.04 0.05 0.05 0.05 0.06 0.06 0.05 0.05 0.04 0.05 0.05 0.04 0.04 0.06 0.03 0.01 0.00 0.00 0.00 0.00 0.00 0.00 0.00 0.00 0.00 0.00 0.01 0.02 0.03 0.04 0.03 0.04 0.05 0.06 0.07 0.07 0.07 0.07 0.07 0.07 0.07 0.06 0.06 0.05 0.05 0.04 0.04
0.00 0.00 0.00 0.00 0.00 0.00 0.00 0.00 0.00 0.00 0.00 0.00 0.00 0.00 0.00 0.00 0.00 0.00 0.00 0.00 0.00 0.01 0.01 0.02 0.03 0.03 0.04 0.05 0.05 0.05 0.04 0.04 0.05 0.06 0.07 0.08 0.07 0.05 0.02 0.01 0.01 0.00 0.00 0.00 0.00 0.00 0.00 0.00 0.00 0.01 0.01 0.01 0.01 0.02 0.02 0.03 0.05 0.05 0.06 0.06 0.07 0.06 0.06 0.05 0.06 0.06 0.06 0.05 0.05
0.00 0.00 0.00 0.00 0.00 0.00 0.00 0.00 0.00 0.00 0.00 0.00 0.00 0.00 0.00 0.00 0.00 0.00 0.00 0.00 0.00 0.00 0.00 0.01 0.01 0.01 0.02 0.02 0.03 0.03 0.04 0.05 0.06 0.05 0.04 0.04 0.05 0.05 0.06 0.06 0.06 0.05 0.04 0.03 0.02 0.01 0.00 0.00 0.00 0.00 0.00 0.00 0.00 0.00 0.00 0.01 0.01 0.02 0.03 0.03 0.04 0.04 0.04 0.03 0.03 0.04 0.04 0.04 0.04
0.00 0.00 0.00 0.00 0.00 0.00 0.00 0.00 0.00 0.00 0.00 0.00 0.00 0.00 0.00 0.00 0.00 0.00 0.00 0.00 0.00 0.00 0.00 0.00 0.00 0.00 0.00 0.00 0.01 0.01 0.02 0.02 0.03 0.03 0.02 0.02 0.02 0.03 0.04 0.04 0.04 0.04 0.04 0.04 0.05 0.06 0.06 0.04 0.02 0.01 0.00 0.00 0.00 0.00 0.00 0.00 0.00 0.00 0.01 0.01 0.01 0.01 0.01 0.01 0.01 0.02 0.02 0.02 0.02
0.00 0.00 0.00 0.00 0.00 0.00 0.00 0.00 0.00 0.00 0.00 0.00 0.00 0.00 0.00 0.00 0.00 0.00 0.00 0.00 0.00 0.00 0.00 0.00 0.00 0.00 0.00 0.00 0.00 0.00 0.00 0.00 0.00 0.01 0.01 0.02 0.02 0.02 0.02 0.02 0.02 0.02 0.02 0.02 0.02 0.02 0.03 0.04 0.04 0.03 0.02 0.02 0.01 0.00 0.00 0.00 0.00 0.00 0.00 0.00 0.00 0.00 0.00 0.00 0.00 0.01 0.01 0.01 0.01
0.00 0.00 0.00 0.00 0.00 0.00 0.00 0.00 0.00 0.00 0.00 0.00 0.00 0.00 0.00 0.00 0.00 0.00 0.00 0.00 0.00 0.00 0.00 0.00 0.00 0.00 0.00 0.00 0.00 0.00 0.00 0.00 0.00 0.00 0.00 0.01 0.01 0.01 0.02 0.02 0.02 0.02 0.02 0.02 0.02 0.01 0.01 0.01 0.02 0.02 0.01 0.01 0.01 0.01 0.01 0.01 0.00 0.00 0.00 0.00 0.00 0.00 0.01 0.00 0.00 0.00 0.00 0.00 0.01
0.00 0.00 0.00 0.00 0.00 0.00 0.00 0.00 0.00 0.00 0.00 0.00 0.00 0.00 0.00 0.00 0.00 0.00 0.00 0.00 0.00 0.00 0.00 0.00 0.00 0.00 0.00 0.00 0.00 0.00 0.00 0.00 0.00 0.00 0.00 0.00 0.00 0.00 0.01 0.01 0.01 0.02 0.02 0.02 0.02 0.02 0.02 0.02 0.02 0.02 0.02 0.01 0.01 0.01 0.01 0.01 0.01 0.01 0.01 0.00 0.01 0.02 0.01 0.01 0.01 0.01 0.01 0.01 0.01
0.00 0.00 0.00 0.00 0.00 0.00 0.00 0.00 0.00 0.00 0.00 0.00 0.00 0.00 0.00 0.00 0.00 0.00 0.00 0.00 0.00 0.00 0.00 0.00 0.00 0.00 0.00 0.00 0.00 0.00 0.00 0.00 0.00 0.00 0.00 0.00 0.00 0.00 0.00 0.00 0.00 0.01 0.01 0.01 0.01 0.01 0.01 0.02 0.01 0.01 0.02 0.02 0.02 0.02 0.01 0.01 0.02 0.02 0.03 0.02 0.04 0.04 0.03 0.03 0.02 0.02 0.02 0.02 0.01
0.00 0.00 0.00 0.00 0.00 0.00 0.00 0.00 0.00 0.00 0.00 0.00 0.00 0.00 0.00 0.00 0.00 0.00 0.00 0.00 0.00 0.00 0.00 0.00 0.00 0.00 0.00 0.00 0.00 0.00 0.00 0.00 0.00 0.00 0.00 0.00 0.00 0.00 0.00 0.00 0.00 0.00 0.00 0.01 0.01 0.01 0.01 0.01 0.01 0.01 0.01 0.01 0.02 0.02 0.02 0.02 0.02 0.02 0.03 0.04 0.04 0.04 0.04 0.03 0.03 0.03 0.04 0.04 0.03
0.00 0.00 0.00 0.00 0.00 0.00 0.00 0.00 0.00 0.00 0.00 0.00 0.00 0.00 0.00 0.00 0.00 0.00 0.00 0.00 0.00 0.00 0.00 0.00 0.00 0.00 0.00 0.00 0.00 0.00 0.00 0.00 0.00 0.00 0.00 0.00 0.00 0.00 0.00 0.00 0.00 0.00 0.00 0.00 0.01 0.01 0.01 0.01 0.01 0.01 0.01 0.01 0.02 0.02 0.02 0.02 0.02 0.02 0.02 0.03 0.02 0.02 0.03 0.03 0.03 0.04 0.04 0.05 0.05
0.00 0.00 0.00 0.00 0.00 0.00 0.00 0.00 0.00 0.00 0.00 0.00 0.00 0.00 0.00 0.00 0.00 0.00 0.00 0.00 0.00 0.00 0.00 0.00 0.00 0.00 0.01 0.01 0.00 0.00 0.00 0.00 0.00 0.00 0.00 0.00 0.00 0.00 0.00 0.00 0.00 0.00 0.00 0.00 0.01 0.01 0.01 0.01 0.01 0.01 0.01 0.01 0.02 0.02 0.02 0.03 0.02 0.02 0.02 0.02 0.02 0.02 0.02 0.02 0.02 0.02 0.03 0.04 0.05
0.00 0.00 0.00 0.00 0.00 0.00 0.00 0.00 0.00 0.00 0.00 0.00 0.00 0.00 0.00 0.00 0.00 0.00 0.00 0.00 0.00 0.00 0.00 0.00 0.00 0.00 0.00 0.00 0.00 0.00 0.00 0.00 0.00 0.00 0.00 0.00 0.00 0.00 0.00 0.00 0.00 0.00 0.00 0.00 0.00 0.00 0.01 0.01 0.01 0.01 0.01 0.02 0.02 0.02 0.03 0.03 0.03 0.03 0.02 0.02 0.02 0.02 0.01 0.01 0.01 0.01 0.02 0.03 0.04
0.00 0.00 0.00 0.00 0.00 0.00 0.00 0.00 0.00 0.00 0.00 0.00 0.00 0.00 0.00 0.00 0.00 0.00 0.00 0.00 0.00 0.00 0.00 0.00 0.00 0.00 0.00 0.00 0.00 0.00 0.00 0.00 0.00 0.00 0.00 0.00 0.00 0.00 0.00 0.00 0.00 0.00 0.00 0.00 0.00 0.00 0.00 0.01 0.01 0.01 0.01 0.02 0.02 0.02 0.03 0.03 0.03 0.03 0.02 0.02 0.02 0.01 0.01 0.01 0.01 0.01 0.01 0.02 0.02
0.00 0.00 0.00 0.00 0.00 0.00 0.00 0.00 0.00 0.00 0.00 0.00 0.00 0.00 0.00 0.00 0.00 0.00 0.00 0.00 0.00 0.00 0.00 0.00 0.00 0.01 0.01 0.01 0.01 0.01 0.01 0.00 0.00 0.00 0.00 0.00 0.00 0.00 0.00 0.00 0.00 0.00 0.00 0.00 0.00 0.00 0.00 0.00 0.00 0.01 0.01 0.01 0.02 0.02 0.02 0.03 0.03 0.03 0.03 0.02 0.02 0.02 0.01 0.01 0.01 0.01 0.01 0.01 0.01
0.00 0.00 0.00 0.00 0.00 0.00 0.00 0.00 0.00 0.00 0.00 0.00 0.00 0.00 0.00 0.00 0.00 0.00 0.00 0.00 0.00 0.00 0.00 0.00 0.00 0.00 0.01 0.01 0.00 0.00 0.00 0.00 0.00 0.00 0.00 0.00 0.00 0.00 0.00 0.00 0.00 0.00 0.00 0.00 0.00 0.00 0.00 0.00 0.00 0.00 0.00 0.01 0.01 0.02 0.02 0.02 0.02 0.02 0.02 0.02 0.02 0.02 0.02 0.01 0.01 0.01 0.01 0.01 0.01
0.00 0.00 0.00 0.00 0.00 0.00 0.00 0.00 0.00 0.00 0.00 0.00 0.00 0.00 0.00 0.00 0.00 0.00 0.00 0.00 0.00 0.00 0.00 0.00 0.00 0.00 0.00 0.00 0.00 0.00 0.00 0.00 0.00 0.00 0.00 0.00 0.00 0.00 0.00 0.00 0.00 0.00 0.00 0.00 0.00 0.00 0.00 0.00 0.00 0.00 0.00 0.00 0.01 0.01 0.01 0.02 0.02 0.02 0.02 0.01 0.01 0.01 0.01 0.01 0.01 0.01 0.01 0.01 0.01
0.00 0.00 0.00 0.00 0.00 0.00 0.00 0.00 0.00 0.00 0.00 0.00 0.00 0.00 0.00 0.00 0.00 0.00 0.00 0.00 0.00 0.00 0.00 0.00 0.00 0.00 0.00 0.00 0.00 0.00 0.00 0.00 0.00 0.00 0.00 0.00 0.00 0.00 0.00 0.00 0.00 0.00 0.00 0.00 0.00 0.00 0.00 0.00 0.00 0.00 0.00 0.00 0.01 0.01 0.01 0.01 0.01 0.01 0.01 0.01 0.01 0.01 0.01 0.01 0.01 0.01 0.01 0.01 0.01
0.00 0.00 0.00 0.00 0.00 0.00 0.00 0.00 0.00 0.00 0.00 0.00 0.00 0.00 0.00 0.00 0.00 0.00 0.00 0.00 0.00 0.00 0.00 0.00 0.00 0.00 0.00 0.00 0.00 0.00 0.00 0.00 0.00 0.00 0.00 0.00 0.00 0.00 0.00 0.00 0.00 0.00 0.00 0.00 0.00 0.00 0.00 0.00 0.00 0.00 0.00 0.00 0.00 0.01 0.01 0.01 0.01 0.01 0.01 0.01 0.01 0.01 0.01 0.01 0.01 0.01 0.01 0.01 0.01
0.00 0.00 0.00 0.00 0.00 0.00 0.00 0.00 0.00 0.00 0.00 0.00 0.00 0.00 0.00 0.00 0.00 0.00 0.00 0.00 0.00 0.00 0.00 0.00 0.00 0.00 0.00 0.00 0.00 0.00 0.00 0.00 0.00 0.00 0.00 0.00 0.00 0.00 0.00 0.00 0.00 0.00 0.00 0.00 0.00 0.00 0.00 0.00 0.00 0.00 0.00 0.00 0.01 0.01 0.01 0.01 0.01 0.01 0.01 0.01 0.01 0.01 0.01 0.01 0.01 0.01 0.01 0.01 0.01
0.00 0.00 0.00 0.00 0.00 0.00 0.00 0.00 0.00 0.00 0.00 0.00 0.00 0.00 0.00 0.00 0.00 0.00 0.00 0.00 0.00 0.00 0.00 0.00 0.00 0.00 0.00 0.00 0.00 0.00 0.00 0.00 0.00 0.00 0.00 0.00 0.00 0.00 0.00 0.00 0.00 0.00 0.00 0.00 0.00 0.00 0.00 0.00 0.00 0.00 0.00 0.00 0.01 0.01 0.01 0.01 0.01 0.01 0.01 0.01 0.01 0.01 0.01 0.01 0.01 0.01 0.01 0.01 0.01
0.00 0.00 0.00 0.00 0.00 0.00 0.00 0.00 0.00 0.00 0.00 0.00 0.00 0.00 0.00 0.00 0.00 0.00 0.00 0.00 0.00 0.00 0.00 0.00 0.00 0.00 0.00 0.00 0.00 0.00 0.00 0.00 0.00 0.00 0.00 0.00 0.00 0.00 0.00 0.00 0.00 0.00 0.00 0.00 0.00 0.00 0.00 0.00 0.00 0.00 0.00 0.01 0.01 0.01 0.01 0.01 0.01 0.01 0.01 0.01 0.01 0.01 0.01 0.01 0.01 0.01 0.01 0.01 0.01
0.00 0.00 0.00 0.00 0.00 0.00 0.00 0.00 0.00 0.00 0.00 0.00 0.00 0.00 0.00 0.00 0.00 0.00 0.00 0.00 0.00 0.00 0.00 0.00 0.00 0.00 0.00 0.00 0.00 0.00 0.00 0.00 0.00 0.00 0.00 0.00 0.00 0.00 0.00 0.00 0.00 0.00 0.00 0.00 0.00 0.00 0.00 0.00 0.00 0.00 0.00 0.01 0.01 0.01 0.02 0.02 0.02 0.02 0.01 0.01 0.01 0.01 0.01 0.01 0.01 0.01 0.01 0.01 0.01
MSLP
1007.26 1007.32 1007.42 1007.48 1007.54 1007.60 1007.68 1007.74 1007.80 1007.88 1007.98 1008.08 1008.14 1008.26 1008.38 1008.46 1008.42 1008.36 1008.36 1008.46 1008.46 1008.46 1008.48 1008.64 1008.80 1008.98 1009.10 1009.20 1009.32 1009.48 1009.60 1009.76 1009.88 1010.02 1010.10 1010.20 1010.32 1010.42 1010.52 1010.60 1010.70 1010.80 1010.88 1010.92 1010.98 1011.04 1011.10 1011.16 1011.30 1011.42 1011.52 1011.58 1011.70 1011.76 1011.86 1011.96 1012.04 1012.14 1012.20 1012.20 1012.20 1012.20 1012.24 1012.26 1012.30 1012.30 1012.30 1012.32 1012.26
1007.46 1007.42 1007.42 1007.46 1007.52 1007.58 1007.68 1007.76 1007.82 1007.88 1007.96 1008.04 1008.14 1008.26 1008.42 1008.60 1008.76 1008.86 1008.92 1008.96 1008.80 1008.64 1008.60 1008.74 1008.88 1009.04 1009.20 1009.36 1009.46 1009.54 1009.68 1009.80 1009.92 1010.04 1010.14 1010.24 1010.32 1010.42 1010.52 1010.60 1010.70 1010.74 1010.80 1010.88 1010.98 1011.04 1011.10 1011.14 1011.24 1011.32 1011.38 1011.46 1011.58 1011.68 1011.76 1011.86 1011.96 1012.08 1012.14 1012.10 1012.08 1012.08 1012.08 1012.14 1012.16 1012.16 1012.20 1012.24 1012.32
1007.58 1007.52 1007.46 1007.42 1007.52 1007.64 1007.76 1007.82 1007.86 1007.88 1007.96 1008.08 1008.14 1008.30 1008.52 1008.80 1009.04 1009.24 1009.32 1009.30 1009.14 1008.98 1008.88 1008.88 1008.98 1009.08 1009.24 1009.38 1009.52 1009.64 1009.74 1009.86 1009.98 1010.10 1010.20 1010.26 1010.32 1010.42 1010.48 1010.58 1010.68 1010.74 1010.80 1010.86 1010.96 1010.98 1011.04 1011.08 1011.16 1011.20 1011.24 1011.30 1011.38 1011.52 1011.64 1011.74 1011.92 1012.08 1012.16 1012.16 1012.04 1011.98 1011.98 1012.02 1012.08 1012.10 1012.14 1012.26 1012.38
1007.82 1007.70 1007.54 1007.48 1007.54 1007.74 1007.86 1007.88 1007.92 1007.92 1007.98 1008.10 1008.20 1008.38 1008.68 1008.96 1009.16 1009.32 1009.42 1009.46 1009.42 1009.38 1009.38 1009.36 1009.32 1009.32 1009.36 1009.52 1009.64 1009.76 1009.88 1010.02 1010.04 1010.08 1010.16 1010.24 1010.30 1010.38 1010.46 1010.48 1010.58 1010.64 1010.70 1010.76 1010.86 1010.88 1010.96 1010.98 1011.02 1011.04 1011.08 1011.10 1011.32 1011.52 1011.68 1011.74 1011.82 1011.98 1012.08 1012.10 1012.04 1012.02 1012.08 1012.14 1012.14 1012.10 1012.10 1012.16 1012.24
1008.16 1008.08 1007.86 1007.70 1007.70 1007.80 1007.92 1007.96 1007.98 1008.02 1008.10 1008.20 1008.32 1008.54 1008.76 1008.98 1009.16 1009.32 1009.42 1009.48 1009.54 1009.60 1009.68 1009.74 1009.76 1009.82 1009.88 1009.96 1009.98 1010.04 1010.14 1010.16 1010.20 1010.24 1010.30 1010.32 1010.32 1010.32 1010.36 1010.42 1010.48 1010.52 1010.58 1010.64 1010.74 1010.82 1010.88 1010.96 1011.02 1011.04 1011.10 1011.26 1011.42 1011.58 1011.64 1011.64 1011.64 1011.74 1011.88 1011.98 1012.02 1012.04 1012.14 1012.24 1012.26 1012.16 1012.04 1011.96 1011.98
1008.54 1008.46 1008.26 1008.08 1008.02 1008.02 1008.02 1008.04 1008.04 1008.10 1008.24 1008.32 1008.46 1008.60 1008.80 1008.96 1009.14 1009.26 1009.36 1009.42 1009.52 1009.60 1009.70 1009.82 1009.96 1010.10 1010.30 1010.42 1010.46 1010.38 1010.32 1010.32 1010.36 1010.42 1010.48 1010.54 1010.52 1010.54 1010.54 1010.58 1010.60 1010.64 1010.70 1010.74 1010.82 1010.88 1010.92 1011.04 1011.16 1011.30 1011.46 1011.60 1011.68 1011.64 1011.58 1011.52 1011.52 1011.58 1011.74 1011.92 1011.98 1012.02 1012.10 1012.24 1012.26 1012.14 1011.92 1011.76 1011.82
1008.74 1008.70 1008.64 1008.54 1008.46 1008.42 1008.36 1008.32 1008.30 1008.30 1008.30 1008.32 1008.42 1008.54 1008.74 1008.92 1009.08 1009.20 1009.30 1009.38 1009.48 1009.58 1009.64 1009.70 1009.82 1009.98 1010.16 1010.38 1010.52 1010.54 1010.58 1010.60 1010.64 1010.64 1010.64 1010.64 1010.60 1010.64 1010.70 1010.76 1010.82 1010.82 1010.86 1010.88 1010.88 1010.86 1010.88 1011.02 1011.24 1011.46 1011.58 1011.70 1011.70 1011.60 1011.48 1011.42 1011.42 1011.52 1011.60 1011.70 1011.74 1011.76 1011.86 1011.98 1012.02 1011.92 1011.76 1011.70 1011.82
1008.92 1008.92 1008.86 1008.80 1008.74 1008.70 1008.68 1008.60 1008.52 1008.48 1008.48 1008.54 1008.60 1008.74 1008.86 1009.02 1009.16 1009.30 1009.36 1009.46 1009.46 1009.46 1009.48 1009.58 1009.68 1009.82 1010.02 1010.20 1010.36 1010.48 1010.60 1010.68 1010.68 1010.64 1010.64 1010.60 1010.60 1010.64 1010.70 1010.76 1010.82 1010.82 1010.82 1010.82 1010.80 1010.76 1010.74 1010.80 1010.98 1011.14 1011.30 1011.46 1011.48 1011.38 1011.26 1011.24 1011.24 1011.30 1011.36 1011.38 1011.32 1011.36 1011.48 1011.64 1011.68 1011.64 1011.60 1011.68 1011.82
1009.14 1009.20 1009.16 1009.04 1008.96 1008.98 1008.98 1008.92 1008.80 1008.76 1008.80 1008.88 1008.96 1009.08 1009.16 1009.24 1009.36 1009.46 1009.52 1009.54 1009.54 1009.48 1009.46 1009.52 1009.58 1009.70 1009.82 1009.96 1010.08 1010.20 1010.26 1010.32 1010.32 1010.38 1010.42 1010.46 1010.52 1010.54 1010.60 1010.70 1010.76 1010.76 1010.70 1010.64 1010.64 1010.64 1010.68 1010.74 1010.86 1010.96 1011.04 1011.20 1011.26 1011.16 1011.08 1011.04 1011.04 1011.08 1011.08 1011.04 1011.02 1011.04 1011.10 1011.24 1011.26 1011.30 1011.38 1011.54 1011.68
1009.64 1009.64 1009.58 1009.48 1009.42 1009.42 1009.42 1009.30 1009.20 1009.16 1009.20 1009.26 1009.32 1009.36 1009.42 1009.48 1009.58 1009.60 1009.60 1009.58 1009.60 1009.58 1009.52 1009.52 1009.58 1009.64 1009.74 1009.82 1009.88 1009.92 1009.96 1009.98 1009.98 1010.02 1010.10 1010.20 1010.36 1010.48 1010.58 1010.68 1010.70 1010.68 1010.64 1010.64 1010.68 1010.74 1010.76 1010.80 1010.82 1010.88 1010.98 1011.04 1011.04 1011.04 1011.04 1011.04 1011.02 1010.98 1010.92 1010.82 1010.82 1010.86 1010.86 1010.86 1010.96 1011.02 1011.14 1011.30 1011.38
1010.24 1010.24 1010.16 1010.10 1010.04 1009.96 1009.82 1009.74 1009.68 1009.60 1009.60 1009.64 1009.68 1009.70 1009.70 1009.74 1009.74 1009.74 1009.70 1009.68 1009.68 1009.64 1009.60 1009.60 1009.64 1009.68 1009.74 1009.80 1009.82 1009.86 1009.82 1009.82 1009.86 1009.88 1009.96 1010.08 1010.24 1010.36 1010.48 1010.58 1010.60 1010.64 1010.70 1010.76 1010.86 1010.88 1010.86 1010.82 1010.80 1010.80 1010.80 1010.82 1010.86 1010.88 1010.88 1010.88 1010.92 1010.88 1010.82 1010.76 1010.74 1010.70 1010.68 1010.64 1010.74 1010.82 1010.92 1011.04 1011.16
1010.80 1010.76 1010.70 1010.68 1010.54 1010.42 1010.30 1010.20 1010.10 1010.04 1010.02 1010.04 1010.04 1010.04 1010.02 1009.92 1009.86 1009.82 1009.80 1009.76 1009.74 1009.70 1009.68 1009.64 1009.68 1009.68 1009.70 1009.74 1009.76 1009.80 1009.80 1009.80 1009.86 1009.92 1010.04 1010.16 1010.24 1010.32 1010.42 1010.54 1010.60 1010.74 1010.82 1010.92 1010.98 1010.98 1010.96 1010.88 1010.80 1010.70 1010.68 1010.68 1010.70 1010.76 1010.80 1010.82 1010.86 1010.86 1010.82 1010.76 1010.74 1010.64 1010.58 1010.54 1010.60 1010.68 1010.80 1010.92 1011.04
1011.14 1011.10 1011.08 1011.02 1010.92 1010.82 1010.70 1010.60 1010.60 1010.58 1010.54 1010.52 1010.46 1010.38 1010.26 1010.10 1010.02 1009.96 1009.86 1009.82 1009.76 1009.70 1009.68 1009.64 1009.64 1009.68 1009.68 1009.70 1009.74 1009.76 1009.80 1009.86 1009.92 1009.98 1010.08 1010.16 1010.24 1010.32 1010.42 1010.48 1010.58 1010.70 1010.80 1010.88 1010.96 1010.98 1010.96 1010.92 1010.82 1010.76 1010.74 1010.70 1010.70 1010.70 1010.74 1010.76 1010.80 1010.82 1010.80 1010.76 1010.70 1010.64 1010.60 1010.58 1010.64 1010.68 1010.74 1010.88 1010.98
1011.38 1011.36 1011.32 1011.26 1011.16 1011.08 1011.02 1010.98 1011.02 1011.02 1010.98 1010.92 1010.76 1010.64 1010.48 1010.36 1010.20 1010.08 1009.98 1009.88 1009.82 1009.74 1009.68 1009.64 1009.68 1009.68 1009.70 1009.70 1009.76 1009.80 1009.82 1009.92 1009.98 1010.04 1010.10 1010.16 1010.24 1010.32 1010.36 1010.42 1010.48 1010.54 1010.68 1010.74 1010.80 1010.82 1010.86 1010.82 1010.80 1010.74 1010.70 1010.68 1010.68 1010.64 1010.68 1010.70 1010.70 1010.70 1010.70 1010.68 1010.68 1010.64 1010.60 1010.58 1010.60 1010.68 1010.74 1010.80 1010.86
1011.60 1011.58 1011.54 1011.48 1011.38 1011.30 1011.24 1011.24 1011.26 1011.26 1011.26 1011.14 1011.02 1010.86 1010.74 1010.58 1010.42 1010.30 1010.16 1010.04 1009.92 1009.80 1009.74 1009.70 1009.70 1009.70 1009.70 1009.74 1009.80 1009.86 1009.88 1009.98 1010.02 1010.08 1010.10 1010.14 1010.24 1010.26 1010.32 1010.38 1010.42 1010.48 1010.54 1010.60 1010.60 1010.64 1010.70 1010.70 1010.68 1010.64 1010.60 1010.58 1010.54 1010.54 1010.54 1010.54 1010.58 1010.58 1010.54 1010.52 1010.52 1010.52 1010.48 1010.48 1010.54 1010.60 1010.68 1010.70 1010.74
1011.88 1011.86 1011.82 1011.76 1011.70 1011.64 1011.58 1011.54 1011.52 1011.52 1011.46 1011.30 1011.16 1011.04 1010.92 1010.80 1010.68 1010.52 1010.38 1010.30 1010.10 1010.02 1009.96 1009.88 1009.82 1009.80 1009.76 1009.80 1009.82 1009.86 1009.92 1009.98 1010.02 1010.04 1010.08 1010.08 1010.16 1010.20 1010.24 1010.30 1010.32 1010.36 1010.42 1010.46 1010.48 1010.48 1010.52 1010.52 1010.48 1010.48 1010.46 1010.42 1010.38 1010.36 1010.36 1010.38 1010.42 1010.38 1010.36 1010.36 1010.36 1010.32 1010.32 1010.36 1010.42 1010.48 1010.54 1010.54 1010.58
1012.20 1012.20 1012.16 1012.10 1012.04 1012.02 1011.98 1011.96 1011.86 1011.76 1011.64 1011.48 1011.32 1011.20 1011.08 1010.98 1010.86 1010.80 1010.70 1010.60 1010.46 1010.32 1010.20 1010.14 1010.04 1009.98 1009.96 1009.92 1009.92 1009.96 1009.98 1009.96 1009.96 1009.98 1009.98 1010.02 1010.08 1010.10 1010.14 1010.16 1010.20 1010.24 1010.26 1010.30 1010.30 1010.30 1010.30 1010.30 1010.26 1010.26 1010.24 1010.20 1010.16 1010.14 1010.14 1010.16 1010.20 1010.20 1010.20 1010.14 1010.14 1010.14 1010.14 1010.16 1010.26 1010.30 1010.32 1010.36 1010.36
1012.54 1012.54 1012.48 1012.42 1012.38 1012.36 1012.32 1012.26 1012.16 1012.04 1011.86 1011.70 1011.54 1011.42 1011.32 1011.20 1011.10 1011.04 1010.98 1010.86 1010.76 1010.64 1010.52 1010.38 1010.30 1010.20 1010.16 1010.14 1010.10 1010.08 1010.04 1010.02 1009.98 1009.96 1009.96 1009.96 1009.96 1009.98 1010.02 1010.04 1010.08 1010.08 1010.10 1010.14 1010.14 1010.10 1010.10 1010.08 1010.08 1010.04 1010.02 1009.96 1009.96 1009.92 1009.92 1009.96 1009.98 1009.98 1009.98 1009.96 1009.96 1009.98 1009.98 1010.02 1010.04 1010.08 1010.10 1010.10 1010.08
1012.88 1012.86 1012.80 1012.76 1012.70 1012.64 1012.54 1012.48 1012.38 1012.26 1012.14 1012.02 1011.86 1011.74 1011.60 1011.52 1011.42 1011.32 1011.24 1011.14 1011.04 1010.92 1010.80 1010.70 1010.58 1010.48 1010.42 1010.38 1010.32 1010.26 1010.20 1010.14 1010.10 1010.04 1009.96 1009.92 1009.88 1009.88 1009.88 1009.88 1009.92 1009.96 1009.96 1009.96 1009.96 1009.96 1009.92 1009.88 1009.88 1009.86 1009.80 1009.76 1009.70 1009.64 1009.64 1009.68 1009.70 1009.74 1009.74 1009.76 1009.80 1009.80 1009.82 1009.82 1009.86 1009.86 1009.86 1009.88 1009.86
1013.24 1013.16 1013.14 1013.08 1013.02 1012.88 1012.80 1012.74 1012.64 1012.54 1012.42 1012.30 1012.14 1012.02 1011.92 1011.82 1011.74 1011.60 1011.52 1011.42 1011.32 1011.20 1011.10 1011.02 1010.88 1010.76 1010.68 1010.64 1010.58 1010.52 1010.42 1010.32 1010.26 1010.16 1010.04 1009.96 1009.88 1009.82 1009.76 1009.76 1009.76 1009.80 1009.80 1009.80 1009.76 1009.76 1009.74 1009.74 1009.70 1009.68 1009.60 1009.54 1009.48 1009.42 1009.36 1009.36 1009.42 1009.46 1009.48 1009.54 1009.58 1009.60 1009.64 1009.64 1009.64 1009.68 1009.68 1009.68 1009.68
1013.54 1013.48 1013.42 1013.36 1013.26 1013.16 1013.08 1012.98 1012.88 1012.80 1012.68 1012.54 1012.46 1012.32 1012.24 1012.08 1011.98 1011.88 1011.80 1011.68 1011.58 1011.48 1011.38 1011.30 1011.16 1011.04 1010.92 1010.88 1010.80 1010.74 1010.68 1010.58 1010.48 1010.38 1010.26 1010.10 1009.98 1009.86 1009.76 1009.70 1009.68 1009.68 1009.64 1009.64 1009.60 1009.58 1009.58 1009.54 1009.52 1009.46 1009.38 1009.36 1009.30 1009.26 1009.20 1009.16 1009.16 1009.20 1009.26 1009.30 1009.32 1009.36 1009.38 1009.42 1009.46 1009.46 1009.46 1009.48 1009.48
1013.86 1013.80 1013.70 1013.64 1013.54 1013.46 1013.36 1013.26 1013.14 1013.02 1012.92 1012.80 1012.70 1012.60 1012.48 1012.36 1012.24 1012.14 1012.04 1011.92 1011.82 1011.70 1011.60 1011.52 1011.46 1011.32 1011.20 1011.14 1011.08 1010.98 1010.88 1010.80 1010.74 1010.64 1010.52 1010.36 1010.16 1009.98 1009.82 1009.70 1009.64 1009.58 1009.52 1009.48 1009.48 1009.46 1009.46 1009.42 1009.38 1009.36 1009.30 1009.24 1009.16 1009.14 1009.10 1009.04 1009.02 1009.02 1009.04 1009.04 1009.10 1009.14 1009.16 1009.20 1009.24 1009.24 1009.26 1009.30 1009.32
1014.16 1014.08 1013.98 1013.88 1013.82 1013.70 1013.58 1013.48 1013.36 1013.24 1013.10 1013.02 1012.92 1012.80 1012.68 1012.58 1012.42 1012.32 1012.24 1012.10 1011.98 1011.88 1011.80 1011.70 1011.64 1011.54 1011.46 1011.36 1011.26 1011.16 1011.10 1010.98 1010.88 1010.80 1010.70 1010.58 1010.36 1010.14 1009.92 1009.74 1009.60 1009.52 1009.42 1009.38 1009.36 1009.36 1009.36 1009.36 1009.32 1009.26 1009.20 1009.14 1009.08 1009.02 1008.98 1008.92 1008.92 1008.92 1008.88 1008.86 1008.88 1008.92 1008.92 1008.98 1009.02 1009.04 1009.08 1009.14 1009.14
1014.42 1014.32 1014.24 1014.14 1014.04 1013.92 1013.80 1013.70 1013.60 1013.48 1013.36 1013.24 1013.14 1013.02 1012.86 1012.74 1012.58 1012.46 1012.32 1012.24 1012.10 1012.04 1011.96 1011.86 1011.80 1011.70 1011.58 1011.48 1011.42 1011.32 1011.24 1011.14 1011.02 1010.92 1010.80 1010.70 1010.52 1010.30 1010.08 1009.88 1009.70 1009.54 1009.42 1009.32 1009.30 1009.30 1009.26 1009.24 1009.20 1009.14 1009.08 1009.02 1008.98 1008.92 1008.86 1008.80 1008.80 1008.76 1008.74 1008.74 1008.74 1008.74 1008.74 1008.76 1008.82 1008.86 1008.92 1008.92 1008.98
1014.68 1014.58 1014.48 1014.38 1014.30 1014.16 1014.04 1013.96 1013.86 1013.74 1013.64 1013.54 1013.38 1013.24 1013.08 1012.96 1012.80 1012.68 1012.52 1012.42 1012.26 1012.16 1012.08 1011.98 1011.88 1011.80 1011.70 1011.60 1011.54 1011.48 1011.38 1011.30 1011.20 1011.04 1010.92 1010.80 1010.64 1010.48 1010.32 1010.10 1009.88 1009.68 1009.48 1009.38 1009.36 1009.32 1009.26 1009.16 1009.10 1009.02 1008.92 1008.86 1008.82 1008.76 1008.70 1008.64 1008.60 1008.60 1008.58 1008.54 1008.58 1008.58 1008.58 1008.60 1008.64 1008.70 1008.76 1008.80 1008.82
1014.88 1014.82 1014.74 1014.64 1014.52 1014.42 1014.30 1014.20 1014.10 1014.02 1013.88 1013.74 1013.60 1013.46 1013.30 1013.16 1013.04 1012.92 1012.80 1012.68 1012.52 1012.38 1012.30 1012.20 1012.08 1011.98 1011.86 1011.76 1011.68 1011.58 1011.52 1011.46 1011.36 1011.24 1011.08 1010.92 1010.76 1010.64 1010.48 1010.30 1010.10 1009.88 1009.68 1009.54 1009.46 1009.38 1009.30 1009.16 1009.04 1008.96 1008.82 1008.74 1008.64 1008.58 1008.52 1008.46 1008.42 1008.42 1008.42 1008.42 1008.42 1008.46 1008.48 1008.48 1008.48 1008.54 1008.58 1008.60 1008.64
1015.08 1015.02 1014.96 1014.88 1014.74 1014.60 1014.54 1014.46 1014.32 1014.20 1014.04 1013.92 1013.76 1013.64 1013.48 1013.36 1013.20 1013.10 1012.98 1012.88 1012.80 1012.68 1012.54 1012.42 1012.32 1012.20 1012.04 1011.96 1011.82 1011.74 1011.64 1011.54 1011.46 1011.36 1011.20 1011.08 1010.92 1010.76 1010.60 1010.48 1010.32 1010.10 1009.92 1009.76 1009.68 1009.54 1009.38 1009.24 1009.04 1008.88 1008.76 1008.64 1008.54 1008.46 1008.38 1008.32 1008.24 1008.24 1008.26 1008.26 1008.26 1008.30 1008.32 1008.32 1008.32 1008.36 1008.38 1008.48 1008.52
1015.16 1015.14 1015.08 1014.98 1014.88 1014.82 1014.74 1014.58 1014.46 1014.32 1014.20 1014.08 1013.92 1013.80 1013.64 1013.48 1013.32 1013.24 1013.14 1013.04 1012.96 1012.82 1012.68 1012.54 1012.46 1012.32 1012.20 1012.08 1011.96 1011.86 1011.76 1011.64 1011.52 1011.38 1011.26 1011.14 1011.02 1010.86 1010.70 1010.58 1010.46 1010.26 1010.10 1009.98 1009.82 1009.70 1009.52 1009.36 1009.16 1008.98 1008.80 1008.64 1008.48 1008.32 1008.20 1008.14 1008.10 1008.08 1008.08 1008.08 1008.08 1008.10 1008.14 1008.14 1008.14 1008.16 1008.24 1008.30 1008.36
1015.20 1015.14 1015.08 1015.02 1014.98 1014.88 1014.80 1014.70 1014.60 1014.52 1014.38 1014.24 1014.10 1013.98 1013.80 1013.64 1013.48 1013.38 1013.26 1013.14 1013.02 1012.92 1012.80 1012.64 1012.52 1012.42 1012.30 1012.16 1012.04 1011.96 1011.82 1011.68 1011.54 1011.46 1011.32 1011.14 1010.98 1010.86 1010.76 1010.60 1010.48 1010.32 1010.20 1010.08 1009.92 1009.74 1009.54 1009.38 1009.24 1009.08 1008.88 1008.74 1008.54 1008.32 1008.14 1008.02 1007.96 1007.96 1007.96 1007.92 1007.92 1007.92 1007.92 1007.96 1007.98 1008.02 1008.08 1008.10 1008.20
1015.14 1015.08 1015.02 1014.96 1014.92 1014.88 1014.82 1014.76 1014.70 1014.60 1014.52 1014.38 1014.26 1014.10 1013.96 1013.80 1013.68 1013.54 1013.42 1013.26 1013.14 1013.02 1012.88 1012.74 1012.60 1012.48 1012.36 1012.24 1012.10 1011.96 1011.82 1011.70 1011.58 1011.48 1011.36 1011.16 1011.02 1010.86 1010.74 1010.64 1010.52 1010.36 1010.16 1010.02 1009.88 1009.74 1009.54 1009.36 1009.20 1009.04 1008.92 1008.80 1008.64 1008.42 1008.20 1008.02 1007.88 1007.82 1007.82 1007.80 1007.76 1007.76 1007.80 1007.82 1007.82 1007.86 1007.88 1007.96 1008.02
1015.14 1015.04 1014.96 1014.86 1014.80 1014.76 1014.74 1014.70 1014.64 1014.58 1014.52 1014.42 1014.30 1014.20 1014.08 1013.96 1013.88 1013.76 1013.64 1013.52 1013.32 1013.14 1012.98 1012.80 1012.64 1012.46 1012.32 1012.20 1012.08 1011.96 1011.82 1011.70 1011.58 1011.48 1011.36 1011.20 1011.04 1010.88 1010.76 1010.60 1010.48 1010.32 1010.14 1009.98 1009.82 1009.68 1009.48 1009.32 1009.20 1009.08 1008.96 1008.80 1008.68 1008.46 1008.24 1008.02 1007.86 1007.76 1007.70 1007.64 1007.64 1007.64 1007.68 1007.68 1007.68 1007.70 1007.74 1007.82 1007.88
1015.32 1015.16 1015.04 1014.92 1014.82 1014.70 1014.60 1014.54 1014.46 1014.38 1014.32 1014.24 1014.16 1014.10 1014.04 1013.98 1013.92 1013.86 1013.76 1013.60 1013.42 1013.20 1013.02 1012.82 1012.64 1012.46 1012.26 1012.10 1011.98 1011.88 1011.80 1011.70 1011.58 1011.46 1011.36 1011.24 1011.10 1010.92 1010.74 1010.58 1010.42 1010.24 1010.08 1009.92 1009.76 1009.60 1009.48 1009.32 1009.20 1009.04 1008.92 1008.80 1008.68 1008.48 1008.26 1008.08 1007.88 1007.74 1007.64 1007.58 1007.52 1007.52 1007.52 1007.52 1007.52 1007.52 1007.58 1007.68 1007.74
1015.70 1015.54 1015.38 1015.24 1015.08 1014.88 1014.74 1014.58 1014.46 1014.32 1014.16 1014.08 1014.02 1013.96 1013.88 1013.82 1013.76 1013.70 1013.64 1013.48 1013.36 1013.24 1013.04 1012.86 1012.68 1012.48 1012.30 1012.14 1011.98 1011.86 1011.74 1011.60 1011.54 1011.42 1011.32 1011.24 1011.10 1010.92 1010.74 1010.52 1010.36 1010.20 1010.04 1009.86 1009.70 1009.54 1009.42 1009.30 1009.14 1009.04 1008.92 1008.76 1008.64 1008.46 1008.24 1008.04 1007.92 1007.74 1007.60 1007.52 1007.46 1007.42 1007.38 1007.38 1007.38 1007.38 1007.42 1007.46 1007.52
1016.10 1015.98 1015.82 1015.68 1015.52 1015.32 1015.14 1014.96 1014.76 1014.58 1014.42 1014.26 1014.14 1014.04 1013.92 1013.82 1013.70 1013.58 1013.48 1013.38 1013.26 1013.14 1013.02 1012.88 1012.74 1012.54 1012.38 1012.24 1012.04 1011.88 1011.74 1011.58 1011.48 1011.36 1011.26 1011.16 1011.04 1010.88 1010.74 1010.52 1010.32 1010.16 1009.98 1009.82 1009.68 1009.52 1009.36 1009.24 1009.10 1008.98 1008.88 1008.76 1008.58 1008.38 1008.24 1008.04 1007.88 1007.70 1007.58 1007.48 1007.36 1007.32 1007.32 1007.32 1007.30 1007.26 1007.26 1007.30 1007.36
1016.30 1016.20 1016.08 1015.98 1015.86 1015.70 1015.52 1015.36 1015.16 1015.02 1014.82 1014.68 1014.54 1014.38 1014.26 1014.14 1013.98 1013.82 1013.68 1013.52 1013.36 1013.16 1013.02 1012.92 1012.76 1012.60 1012.46 1012.30 1012.14 1011.98 1011.80 1011.60 1011.46 1011.32 1011.20 1011.08 1010.96 1010.80 1010.64 1010.46 1010.26 1010.14 1009.98 1009.82 1009.68 1009.48 1009.30 1009.16 1009.04 1008.92 1008.80 1008.70 1008.52 1008.36 1008.14 1007.98 1007.80 1007.64 1007.48 1007.38 1007.26 1007.20 1007.20 1007.20 1007.20 1007.16 1007.14 1007.14 1007.20
1016.38 1016.30 1016.20 1016.10 1015.98 1015.86 1015.70 1015.58 1015.42 1015.30 1015.16 1015.02 1014.86 1014.70 1014.58 1014.42 1014.32 1014.14 1013.96 1013.74 1013.52 1013.32 1013.16 1013.02 1012.88 1012.70 1012.52 1012.36 1012.20 1012.04 1011.88 1011.74 1011.52 1011.32 1011.16 1011.04 1010.88 1010.74 1010.52 1010.32 1010.16 1010.04 1009.92 1009.82 1009.64 1009.46 1009.26 1009.10 1008.98 1008.86 1008.74 1008.64 1008.42 1008.24 1008.08 1007.92 1007.74 1007.58 1007.42 1007.30 1007.16 1007.08 1007.04 1007.08 1007.08 1007.04 1007.02 1007.02 1007.04
1016.42 1016.36 1016.26 1016.16 1016.04 1015.92 1015.82 1015.68 1015.54 1015.42 1015.30 1015.20 1015.04 1014.92 1014.76 1014.64 1014.46 1014.30 1014.10 1013.88 1013.68 1013.46 1013.26 1013.10 1012.96 1012.82 1012.64 1012.48 1012.30 1012.10 1011.98 1011.86 1011.68 1011.42 1011.20 1011.02 1010.86 1010.70 1010.46 1010.24 1010.04 1009.92 1009.82 1009.74 1009.58 1009.42 1009.24 1009.08 1008.92 1008.80 1008.70 1008.58 1008.36 1008.16 1007.98 1007.82 1007.64 1007.48 1007.32 1007.16 1007.08 1006.96 1006.92 1006.96 1006.96 1006.96 1006.96 1006.92 1006.92
1016.46 1016.36 1016.30 1016.20 1016.10 1015.98 1015.88 1015.76 1015.64 1015.52 1015.42 1015.30 1015.14 1015.02 1014.86 1014.68 1014.52 1014.32 1014.16 1013.98 1013.80 1013.58 1013.36 1013.16 1013.02 1012.86 1012.70 1012.54 1012.32 1012.14 1011.96 1011.82 1011.70 1011.48 1011.24 1010.98 1010.82 1010.64 1010.42 1010.16 1009.96 1009.82 1009.74 1009.64 1009.52 1009.36 1009.16 1009.02 1008.82 1008.70 1008.60 1008.52 1008.30 1008.08 1007.92 1007.74 1007.54 1007.38 1007.24 1007.10 1007.02 1006.88 1006.82 1006.86 1006.86 1006.86 1006.86 1006.82 1006.82
1016.42 1016.32 1016.24 1016.14 1016.04 1015.98 1015.86 1015.76 1015.68 1015.58 1015.46 1015.30 1015.14 1015.02 1014.86 1014.68 1014.52 1014.36 1014.20 1014.08 1013.92 1013.76 1013.54 1013.30 1013.08 1012.86 1012.70 1012.52 1012.30 1012.08 1011.86 1011.70 1011.60 1011.48 1011.24 1010.98 1010.76 1010.58 1010.38 1010.16 1009.88 1009.70 1009.58 1009.48 1009.38 1009.24 1009.08 1008.92 1008.80 1008.64 1008.52 1008.42 1008.20 1008.02 1007.82 1007.64 1007.46 1007.26 1007.14 1007.02 1006.92 1006.86 1006.82 1006.82 1006.82 1006.82 1006.80 1006.80 1006.80
1016.36 1016.26 1016.16 1016.08 1015.98 1015.88 1015.76 1015.68 1015.58 1015.48 1015.38 1015.24 1015.08 1014.96 1014.80 1014.68 1014.52 1014.32 1014.20 1014.08 1013.98 1013.82 1013.60 1013.32 1013.10 1012.88 1012.70 1012.52 1012.30 1012.02 1011.76 1011.54 1011.46 1011.36 1011.16 1010.96 1010.70 1010.48 1010.30 1010.04 1009.76 1009.54 1009.38 1009.32 1009.24 1009.14 1008.98 1008.82 1008.68 1008.52 1008.42 1008.30 1008.10 1007.92 1007.74 1007.54 1007.32 1007.16 1007.04 1006.92 1006.86 1006.82 1006.80 1006.80 1006.80 1006.80 1006.76 1006.76 1006.76
1016.32 1016.20 1016.10 1016.04 1015.96 1015.82 1015.74 1015.58 1015.48 1015.36 1015.26 1015.14 1015.04 1014.88 1014.74 1014.54 1014.42 1014.26 1014.14 1013.98 1013.88 1013.70 1013.48 1013.26 1013.04 1012.86 1012.68 1012.48 1012.26 1012.02 1011.74 1011.48 1011.30 1011.16 1011.04 1010.86 1010.60 1010.38 1010.16 1009.96 1009.68 1009.38 1009.20 1009.10 1009.04 1008.98 1008.86 1008.70 1008.54 1008.42 1008.30 1008.16 1008.02 1007.82 1007.64 1007.46 1007.26 1007.08 1006.92 1006.80 1006.76 1006.74 1006.76 1006.76 1006.80 1006.80 1006.76 1006.76 1006.76
Thickness
5626 5627 5628 5628 5629 5630 5631 5631 5632 5633 5633 5633 5635 5636 5638 5640 5640 5638 5636 5636 5635 5634 5633 5633 5632 5631 5630 5630 5629 5628 5628 5628 5627 5627 5627 5628 5629 5628 5629 5629 5629 5629 5629 5630 5630 5631 5631 5631 5631 5632 5631 5632 5632 5632 5631 5631 5631 5630 5630 5631 5632 5633 5633 5634 5634 5635 5635 5636 5637
5622 5624 5626 5627 5629 5630 5631 5631 5631 5632 5632 5633 5634 5636 5638 5640 5640 5638 5636 5635 5634 5632 5629 5629 5627 5627 5626 5625 5624 5623 5623 5622 5622 5622 5622 5623 5624 5624 5625 5625 5626 5626 5626 5626 5627 5628 5628 5629 5629 5629 5629 5630 5629 5629 5628 5628 5627 5627 5627 5628 5629 5630 5631 5631 5631 5632 5632 5633 5633
5620 5622 5624 5626 5628 5629 5630 5630 5630 5631 5631 5631 5632 5634 5636 5637 5636 5635 5633 5632 5632 5631 5628 5626 5624 5622 5621 5620 5619 5619 5618 5617 5617 5617 5618 5618 5619 5620 5621 5622 5622 5622 5623 5624 5624 5624 5625 5626 5627 5627 5627 5627 5627 5626 5625 5624 5623 5623 5622 5623 5625 5628 5629 5628 5628 5628 5629 5629 5628
5619 5621 5623 5625 5626 5626 5627 5627 5629 5629 5629 5629 5629 5630 5631 5631 5630 5629 5627 5626 5625 5626 5625 5624 5623 5620 5619 5618 5617 5616 5615 5616 5615 5615 5615 5616 5616 5617 5618 5619 5619 5620 5621 5621 5621 5622 5623 5623 5625 5625 5626 5626 5624 5623 5621 5619 5620 5620 5619 5619 5621 5623 5624 5624 5623 5624 5625 5625 5624
5615 5617 5620 5622 5622 5622 5623 5624 5626 5626 5626 5626 5626 5626 5626 5625 5625 5623 5622 5620 5619 5619 5619 5619 5620 5619 5619 5618 5615 5614 5613 5613 5613 5614 5614 5614 5614 5615 5616 5616 5618 5618 5619 5619 5620 5620 5621 5622 5623 5625 5627 5626 5626 5622 5618 5617 5620 5621 5619 5618 5619 5620 5620 5618 5618 5619 5621 5622 5623
5610 5612 5615 5617 5619 5620 5621 5622 5623 5623 5623 5623 5623 5623 5622 5621 5620 5619 5618 5616 5616 5616 5616 5617 5617 5618 5618 5616 5614 5611 5610 5609 5610 5609 5610 5612 5612 5613 5614 5615 5615 5617 5618 5620 5619 5618 5620 5623 5623 5623 5622 5620 5620 5618 5617 5618 5620 5620 5619 5617 5617 5616 5616 5615 5613 5614 5617 5621 5622
5606 5608 5610 5612 5614 5616 5618 5619 5620 5620 5620 5621 5621 5621 5620 5618 5616 5615 5614 5613 5612 5612 5613 5614 5614 5615 5615 5614 5613 5612 5610 5609 5608 5608 5608 5608 5608 5608 5609 5610 5611 5613 5615 5617 5617 5616 5618 5621 5621 5618 5615 5615 5615 5617 5618 5619 5620 5618 5616 5615 5613 5612 5612 5612 5611 5612 5615 5618 5618
5602 5603 5605 5607 5608 5610 5611 5613 5614 5616 5616 5616 5616 5615 5614 5612 5611 5609 5609 5609 5609 5610 5611 5612 5612 5612 5611 5611 5610 5610 5610 5608 5608 5608 5607 5607 5607 5607 5607 5607 5608 5610 5611 5611 5612 5612 5613 5614 5613 5613 5613 5615 5615 5614 5614 5617 5618 5617 5614 5613 5612 5612 5612 5612 5611 5612 5614 5615 5614
5599 5600 5601 5602 5603 5604 5604 5605 5607 5607 5608 5607 5607 5607 5606 5606 5605 5605 5606 5606 5606 5607 5608 5608 5608 5609 5608 5608 5608 5607 5608 5608 5608 5608 5608 5607 5606 5606 5607 5606 5607 5608 5609 5609 5609 5609 5609 5609 5610 5609 5610 5610 5609 5610 5611 5612 5613 5614 5613 5613 5613 5612 5613 5613 5612 5612 5612 5612 5610
5592 5592 5593 5594 5594 5595 5596 5596 5597 5598 5598 5599 5599 5599 5599 5599 5600 5601 5602 5602 5602 5603 5604 5604 5605 5606 5605 5605 5605 5605 5606 5607 5608 5608 5608 5607 5606 5606 5605 5605 5606 5606 5607 5607 5607 5606 5606 5606 5606 5606 5607 5607 5607 5607 5607 5607 5608 5609 5610 5610 5610 5611 5611 5611 5611 5610 5610 5610 5609
5580 5580 5581 5582 5583 5585 5587 5588 5589 5590 5591 5591 5592 5592 5593 5594 5595 5596 5596 5598 5598 5599 5600 5600 5601 5602 5602 5602 5602 5603 5603 5604 5605 5605 5605 5604 5604 5604 5603 5603 5603 5603 5603 5602 5602 5602 5602 5603 5603 5604 5604 5605 5604 5604 5604 5604 5605 5605 5605 5607 5608 5608 5609 5609 5610 5609 5609 5607 5606
5570 5571 5572 5573 5575 5577 5580 5581 5582 5584 5584 5585 5586 5587 5588 5589 5590 5591 5593 5594 5595 5596 5597 5598 5598 5599 5599 5599 5600 5600 5600 5601 5601 5602 5602 5601 5601 5600 5600 5599 5599 5598 5598 5598 5598 5598 5599 5600 5600 5601 5602 5603 5602 5602 5602 5602 5602 5602 5602 5603 5604 5606 5607 5608 5607 5607 5606 5604 5603
5565 5566 5567 5569 5570 5572 5574 5575 5576 5577 5579 5580 5581 5583 5584 5585 5586 5588 5589 5591 5593 5594 5595 5596 5597 5597 5597 5597 5598 5598 5598 5598 5598 5598 5598 5597 5597 5597 5596 5596 5595 5595 5595 5595 5595 5595 5595 5596 5597 5598 5599 5599 5599 5600 5599 5599 5599 5599 5599 5600 5601 5602 5602 5604 5603 5603 5602 5602 5601
5561 5562 5563 5565 5566 5568 5570 5570 5571 5572 5574 5575 5577 5579 5581 5581 5583 5585 5587 5588 5590 5592 5593 5594 5594 5595 5596 5595 5595 5596 5595 5595 5595 5595 5594 5595 5595 5595 5594 5594 5593 5593 5592 5592 5592 5593 5593 5593 5594 5595 5595 5596 5597 5597 5597 5596 5596 5597 5597 5597 5598 5598 5599 5599 5599 5599 5599 5598 5598
5558 5558 5559 5561 5562 5564 5566 5567 5568 5568 5569 5570 5573 5574 5576 5578 5580 5582 5584 5586 5587 5589 5590 5591 5592 5593 5593 5593 5593 5593 5592 5592 5592 5592 5593 5592 5592 5592 5591 5591 5591 5590 5590 5590 5590 5591 5591 5591 5592 5592 5592 5593 5593 5594 5594 5594 5594 5595 5595 5595 5595 5595 5595 5596 5596 5596 5596 5595 5596
5553 5554 5555 5556 5558 5559 5561 5562 5563 5564 5565 5567 5569 5570 5572 5574 5577 5578 5580 5582 5584 5586 5587 5588 5589 5589 5590 5591 5591 5590 5590 5589 5589 5589 5590 5590 5589 5589 5588 5588 5588 5588 5588 5588 5588 5588 5589 5589 5589 5589 5590 5590 5591 5591 5591 5592 5591 5592 5593 5593 5593 5593 5593 5593 5593 5592 5592 5593 5593
5549 5550 5550 5552 5553 5554 5555 5556 5558 5560 5561 5563 5565 5567 5569 5571 5573 5574 5576 5577 5579 5581 5582 5583 5584 5585 5586 5587 5587 5587 5587 5587 5587 5587 5587 5587 5587 5586 5586 5586 5585 5585 5585 5586 5585 5586 5586 5587 5587 5587 5587 5588 5588 5589 5589 5589 5589 5590 5590 5590 5590 5591 5591 5591 5591 5590 5590 5590 5591
5546 5546 5547 5548 5549 5550 5551 5552 5553 5555 5558 5560 5562 5563 5565 5567 5569 5570 5571 5572 5574 5576 5577 5578 5579 5581 5582 5582 5583 5584 5584 5584 5584 5584 5584 5584 5583 5583 5583 5583 5583 5582 5583 5583 5583 5583 5584 5585 5585 5585 5586 5586 5587 5587 5587 5587 5587 5588 5588 5588 5588 5588 5588 5588 5589 5589 5589 5589 5589
5541 5542 5543 5544 5545 5546 5547 5548 5550 5552 5553 5555 5557 5559 5561 5562 5563 5565 5566 5567 5569 5570 5571 5573 5574 5575 5576 5576 5577 5578 5579 5579 5580 5581 5581 5581 5581 5581 5581 5581 5580 5581 5581 5581 5581 5582 5582 5582 5583 5583 5584 5585 5585 5585 5585 5585 5586 5585 5585 5586 5586 5586 5586 5586 5586 5586 5586 5588 5588
5537 5538 5539 5540 5541 5543 5544 5545 5546 5548 5549 5551 5552 5554 5556 5556 5558 5560 5561 5562 5563 5565 5565 5567 5568 5569 5570 5571 5571 5572 5573 5574 5575 5576 5577 5578 5578 5578 5579 5579 5579 5579 5579 5579 5580 5580 5580 5581 5581 5582 5582 5583 5584 5584 5584 5584 5584 5584 5584 5583 5584 5583 5584 5584 5583 5584 5584 5584 5585
5533 5534 5535 5536 5537 5539 5540 5541 5542 5543 5545 5546 5547 5548 5550 5551 5553 5554 5555 5556 5557 5559 5560 5561 5562 5564 5564 5565 5566 5567 5568 5568 5570 5570 5571 5573 5574 5576 5575 5576 5576 5576 5577 5577 5578 5578 5578 5579 5579 5580 5580 5581 5582 5582 5582 5583 5583 5583 5582 5582 5582 5582 5582 5582 5582 5582 5582 5582 5582
5529 5530 5531 5532 5533 5534 5535 5536 5537 5539 5540 5541 5542 5544 5545 5546 5548 5548 5550 5551 5552 5553 5554 5555 5556 5557 5558 5559 5560 5561 5561 5562 5564 5564 5565 5567 5569 5571 5573 5573 5573 5574 5574 5575 5575 5575 5576 5576 5576 5577 5578 5578 5579 5580 5580 5581 5581 5581 5581 5581 5581 5581 5581 5581 5581 5580 5580 5580 5580
5525 5526 5527 5528 5528 5530 5531 5532 5533 5534 5535 5536 5538 5539 5541 5542 5543 5544 5545 5546 5547 5548 5549 5550 5550 5551 5552 5553 5554 5555 5556 5557 5558 5559 5560 5561 5563 5565 5567 5568 5569 5570 5571 5572 5572 5573 5574 5574 5574 5574 5575 5576 5576 5576 5577 5578 5578 5579 5579 5579 5579 5579 5579 5579 5578 5579 5578 5578 5578
5521 5522 5523 5523 5524 5525 5526 5527 5529 5530 5531 5532 5533 5534 5536 5537 5539 5540 5541 5542 5543 5543 5544 5545 5545 5547 5547 5548 5549 5549 5550 5551 5552 5553 5555 5556 5557 5559 5561 5563 5565 5566 5567 5568 5569 5569 5569 5570 5570 5571 5572 5572 5573 5574 5574 5575 5576 5576 5576 5576 5576 5577 5577 5576 5576 5576 5575 5576 5575
5517 5517 5518 5519 5520 5521 5521 5522 5523 5524 5525 5526 5527 5528 5530 5531 5533 5534 5536 5537 5538 5539 5540 5540 5541 5542 5543 5543 5544 5544 5545 5546 5547 5549 5550 5551 5552 5553 5555 5557 5559 5561 5562 5564 5564 5564 5564 5565 5566 5567 5568 5569 5570 5570 5571 5572 5573 5574 5574 5574 5574 5574 5574 5574 5574 5573 5573 5573 5572
5512 5513 5514 5515 5515 5516 5517 5517 5517 5518 5519 5520 5522 5523 5524 5525 5527 5528 5529 5530 5531 5532 5533 5535 5536 5537 5537 5538 5539 5539 5541 5541 5542 5543 5545 5546 5547 5548 5549 5551 5553 5555 5556 5558 5559 5559 5560 5562 5562 5564 5565 5566 5567 5568 5568 5570 5570 5571 5571 5571 5572 5571 5571 5571 5571 5571 5570 5570 5570
5508 5508 5509 5509 5511 5511 5512 5512 5513 5514 5515 5516 5517 5518 5519 5520 5521 5523 5524 5524 5525 5526 5527 5529 5530 5531 5532 5533 5534 5535 5536 5536 5537 5538 5539 5540 5541 5543 5544 5545 5546 5548 5550 5551 5552 5554 5555 5556 5558 5559 5561 5562 5563 5564 5566 5566 5568 5568 5568 5569 5569 5569 5569 5569 5569 5568 5568 5567 5567
5504 5504 5505 5506 5506 5507 5508 5509 5510 5510 5511 5512 5513 5514 5515 5516 5517 5518 5518 5519 5521 5521 5522 5523 5524 5525 5526 5527 5528 5529 5530 5531 5533 5534 5535 5536 5537 5538 5539 5540 5541 5542 5543 5544 5545 5547 5548 5550 5552 5553 5555 5557 5558 5560 5561 5562 5563 5564 5565 5565 5566 5565 5566 5566 5565 5565 5565 5564 5564
5501 5502 5502 5502 5503 5503 5504 5505 5505 5506 5507 5508 5508 5510 5510 5512 5513 5514 5515 5515 5516 5517 5518 5519 5520 5521 5522 5522 5523 5524 5525 5526 5527 5528 5530 5531 5532 5533 5534 5535 5536 5537 5537 5538 5540 5541 5543 5544 5546 5547 5548 5550 5552 5554 5557 5558 5559 5560 5560 5561 5561 5562 5562 5562 5562 5562 5561 5561 5560
5499 5499 5500 5500 5500 5501 5501 5501 5501 5502 5503 5504 5505 5505 5507 5507 5509 5509 5511 5511 5512 5513 5514 5515 5516 5517 5517 5518 5519 5520 5521 5522 5523 5524 5525 5527 5527 5529 5529 5530 5531 5532 5533 5534 5535 5536 5537 5539 5540 5541 5542 5544 5545 5548 5550 5553 5554 5555 5555 5557 5557 5557 5558 5558 5558 5558 5558 5557 5557
5496 5497 5498 5498 5499 5499 5499 5499 5499 5500 5500 5500 5501 5502 5502 5503 5503 5504 5505 5506 5507 5508 5509 5510 5512 5513 5514 5515 5516 5517 5518 5518 5519 5520 5521 5522 5523 5524 5525 5526 5527 5527 5528 5529 5531 5531 5533 5534 5535 5536 5537 5538 5540 5542 5544 5546 5548 5550 5551 5552 5552 5552 5553 5553 5553 5554 5554 5553 5553
5493 5494 5495 5496 5496 5497 5497 5497 5498 5498 5498 5498 5499 5499 5499 5499 5500 5499 5500 5502 5503 5504 5505 5506 5508 5509 5510 5511 5512 5513 5514 5514 5514 5515 5516 5517 5518 5519 5520 5521 5522 5523 5524 5525 5526 5527 5528 5529 5529 5530 5532 5532 5534 5536 5538 5540 5542 5544 5545 5547 5547 5548 5548 5549 5549 5549 5549 5549 5549
5487 5488 5489 5490 5491 5492 5493 5493 5494 5495 5496 5496 5496 5497 5497 5497 5497 5497 5497 5497 5499 5499 5500 5502 5503 5504 5505 5506 5507 5508 5509 5509 5510 5510 5511 5512 5513 5514 5515 5517 5517 5518 5519 5521 5521 5522 5523 5524 5524 5525 5526 5527 5528 5531 5533 5535 5536 5539 5540 5541 5543 5543 5543 5544 5544 5545 5545 5545 5545
5481 5482 5482 5483 5484 5485 5486 5487 5488 5488 5490 5490 5491 5492 5492 5492 5493 5493 5493 5494 5494 5494 5495 5496 5497 5498 5499 5500 5501 5502 5503 5503 5504 5505 5505 5506 5507 5508 5510 5511 5512 5513 5514 5515 5516 5517 5518 5519 5520 5520 5521 5522 5523 5525 5527 5529 5531 5533 5535 5536 5537 5538 5538 5539 5540 5540 5540 5541 5541
5478 5478 5478 5478 5479 5479 5480 5480 5481 5482 5482 5483 5484 5485 5484 5485 5486 5486 5487 5488 5488 5489 5490 5490 5491 5491 5493 5493 5494 5495 5496 5498 5499 5499 5500 5500 5501 5503 5504 5505 5506 5507 5508 5509 5510 5511 5513 5514 5514 5515 5516 5517 5518 5521 5522 5524 5526 5528 5530 5531 5533 5533 5534 5534 5535 5535 5536 5536 5537
5477 5477 5477 5477 5477 5477 5477 5477 5477 5478 5478 5478 5478 5478 5479 5479 5479 5480 5481 5482 5483 5483 5484 5485 5486 5486 5487 5487 5488 5489 5490 5491 5492 5493 5494 5495 5496 5497 5499 5501 5501 5502 5502 5503 5504 5505 5506 5508 5509 5510 5511 5512 5513 5515 5517 5519 5521 5523 5525 5526 5528 5528 5529 5529 5530 5531 5531 5532 5532
5476 5476 5476 5476 5476 5476 5475 5475 5475 5476 5476 5475 5475 5475 5476 5476 5476 5476 5477 5478 5479 5479 5480 5481 5481 5481 5482 5483 5484 5484 5485 5485 5486 5487 5489 5489 5490 5492 5493 5495 5496 5497 5497 5497 5498 5499 5501 5502 5503 5504 5505 5506 5508 5510 5512 5514 5515 5518 5519 5521 5523 5524 5525 5525 5525 5525 5526 5527 5528
5474 5475 5474 5474 5474 5473 5473 5473 5473 5473 5473 5473 5473 5473 5473 5473 5473 5474 5474 5474 5475 5476 5477 5477 5477 5478 5478 5479 5479 5481 5481 5481 5481 5482 5484 5485 5486 5487 5488 5490 5492 5492 5492 5493 5493 5494 5495 5497 5498 5499 5499 5501 5503 5505 5507 5509 5511 5513 5514 5516 5517 5519 5519 5520 5520 5520 5521 5522 5523
5473 5473 5472 5472 5472 5472 5471 5471 5471 5470 5470 5470 5470 5470 5470 5471 5470 5471 5471 5471 5470 5471 5472 5473 5474 5474 5475 5475 5476 5476 5478 5477 5477 5478 5479 5481 5481 5483 5484 5485 5487 5489 5489 5488 5488 5489 5490 5491 5492 5493 5494 5496 5498 5499 5501 5503 5506 5508 5509 5511 5512 5513 5514 5514 5515 5515 5516 5516 5517
5471 5471 5470 5470 5470 5470 5469 5469 5469 5468 5468 5468 5467 5468 5467 5467 5467 5467 5467 5467 5467 5467 5468 5469 5470 5470 5470 5471 5471 5472 5473 5474 5474 5474 5474 5476 5477 5478 5480 5481 5483 5485 5485 5485 5484 5484 5486 5486 5487 5488 5489 5490 5492 5494 5497 5498 5501 5503 5504 5506 5507 5508 5508 5508 5509 5509 5510 5510 5512
5468 5468 5468 5468 5467 5467 5466 5466 5466 5466 5465 5465 5464 5464 5464 5464 5464 5464 5464 5463 5463 5463 5464 5465 5466 5466 5465 5466 5467 5468 5469 5470 5471 5470 5470 5471 5472 5473 5475 5477 5479 5480 5481 5482 5481 5481 5481 5482 5483 5484 5485 5486 5487 5489 5492 5494 5496 5498 5500 5501 5502 5503 5503 5503 5503 5504 5505 5506 5506